ATLAS 5 CENTAUR R/B, 41867

Orbit data source: Space-Track

ATLAS 5 CENTAUR R/B, 41867 is space debris in HEO originally from a launch on Sat, 19 Nov 2016 UTC launched from the Air Force Eastern Test Range (AFETR). Debris objects in space refer to the collection of defunct objects orbiting the Earth. Examples of debris include non-operational satellites, rocket bodies, and fragments generated from explosions, collisions, or faulty payload assembly.

Loading next visibility...
Identifier
41867, 2016-071B
Orbit
HEO
Country
Flag of USUS
Related business
Flag of USUnited Launch Alliance/Lockheed Martin (US)
Manufacturer
ULA Decatur
Mission
Spacecraft
Bus & Motor
CENTAUR SEC, RL10C-1
Mass
~2,020 kg wet, 2,020 kg dry
Launch date (UTC)
2016-11-19 (9 years ago)
Launch vehicle
Unknown
Launch site
Air Force Eastern Test Range (AFETR)
Object type
Payload
Rocket body
Debris
Shape & HBR
Cyl + 1 Nozzle, 5.8 m
Radar Cross Section
32.260 m², Large (>1 m²)

Expand to show TLE details & history
Last TLE update: 13 hours ago

TLE from 13 hours ago
0 ATLAS 5 CENTAUR R/B
1 41867U 16071B   25258.47257495 -.00000146  00000-0  00000-0 0  9998
2 41867  11.3763 280.9301 4919811 112.7588 305.3341  1.89345492 61019
Epoch: 2025-09-15T11:20Z
TLE epoch observation values (Epoch: 2025-09-15T11:20:30.475Z)
Latitude
-0.00001°
Longitude
116.10906°
Altitude
19,435.332 km
Speed
4.055 km/s
True Right ascension
18h 43m 39s
True Declination
0° 00' 00"
Sunlit
Object was in daylight at epoch
Visualization orbit readout
Latitude
Unknown
Longitude
Unknown
Altitude
Unknown
Speed
Unknown
Apparent Right ascension
Unknown
Apparent Declination
Unknown
Sunlit
N/A
Visualization observer readout
Local Sidereal Time
17:10:49
Azimuth
Unknown
Elevation
Unknown
Doppler factor
Unknown
Orbital elements
Apogee altitude
34,802.964 km
Perigee altitude
7,644.009 km
Semi-major axis
27,601.623 km
Eccentricity
0.49198
Inclination
11.3763°
RAAN
280.9301°
Arg. of periapsis
112.7588°
True anomaly
247.16567°
Mean anomaly
305.3341°
Eccentric anomaly
277.37911°
Mean motion
0.47331 °/min
Orbital period
760.61 mins
BSTAR
0
Loading maneuver chart data...
Computing Atmospheric mass density...
Loading historical data...
Loading historical data...
Loading historical data...
Loading historical data...
Loading historical data...
Loading historical data...
Loading historical data...
Other satellites on launch #71 in the year 2016 (2016-11-19 UTC)

Documentation

Showing up to 5 results
|